| time (UTC) | temp F | wind direction | speed knots | gust knots | rain 1hr in | rain 24hr in | rain mn in | humidity % | barometer mb |
| 20260507185548 | 65 | 360 | 0.9 | 4.3 | 0.00 | 1.08 | 0.20 | 69 | 1014.6 |
| 20260507185052 | 65 | 360 | 0.0 | 5.2 | 0.00 | 1.08 | 0.20 | 68 | 1014.6 |
| 20260507184558 | 65 | 0 | 1.7 | 5.2 | 0.00 | 1.08 | 0.20 | 68 | 1014.6 |
| 20260507184049 | 65 | 360 | 0.9 | 7.0 | 0.00 | 1.08 | 0.20 | 68 | 1014.7 |
| 20260507183550 | 65 | 360 | 2.6 | 7.0 | 0.00 | 1.08 | 0.20 | 67 | 1014.7 |
| 20260507183053 | 66 | 360 | 1.7 | 5.2 | 0.00 | 1.08 | 0.20 | 68 | 1014.7 |
| 20260507182552 | 66 | 360 | 0.0 | 4.3 | 0.00 | 1.08 | 0.20 | 69 | 1014.7 |
| 20260507182052 | 65 | 360 | 2.6 | 7.0 | 0.00 | 1.08 | 0.20 | 67 | 1014.8 |
| 20260507181555 | 65 | 360 | 2.6 | 7.0 | 0.00 | 1.08 | 0.20 | 68 | 1014.9 |
| 20260507181053 | 65 | 0 | 1.7 | 5.2 | 0.00 | 1.08 | 0.20 | 66 | 1014.9 |
| 20260507180549 | 65 | 360 | 2.6 | 7.0 | 0.00 | 1.08 | 0.20 | 68 | 1014.9 |
| 20260507180056 | 65 | 360 | 1.7 | 7.0 | 0.00 | 1.08 | 0.20 | 68 | 1014.8 |
| 20260507175551 | 65 | 360 | 1.7 | 5.2 | 0.00 | 1.08 | 0.20 | 69 | 1015.0 |
| 20260507175048 | 65 | 360 | 2.6 | 5.2 | 0.00 | 1.08 | 0.20 | 71 | 1015.0 |
| 20260507174552 | 64 | 360 | 0.9 | 5.2 | 0.00 | 1.08 | 0.20 | 70 | 1015.0 |
| 20260507174052 | 64 | 360 | 0.9 | 7.8 | 0.00 | 1.08 | 0.20 | 71 | 1015.1 |
| 20260507173551 | 64 | 0 | 1.7 | 7.8 | 0.00 | 1.08 | 0.20 | 72 | 1015.3 |
| 20260507173058 | 64 | 360 | 2.6 | 7.8 | 0.00 | 1.08 | 0.20 | 71 | 1015.4 |
| 20260507172550 | 64 | 360 | 1.7 | 7.8 | 0.00 | 1.08 | 0.20 | 71 | 1015.4 |
| 20260507172052 | 64 | 360 | 1.7 | 7.8 | 0.00 | 1.08 | 0.20 | 73 | 1015.5 |
| 20260507171554 | 64 | 360 | 1.7 | 9.6 | 0.00 | 1.08 | 0.20 | 72 | 1015.4 |
| 20260507171052 | 63 | 360 | 3.5 | 9.6 | 0.00 | 1.08 | 0.20 | 72 | 1015.5 |
| 20260507170552 | 63 | 360 | 2.6 | 7.8 | 0.00 | 1.08 | 0.20 | 74 | 1015.5 |
| 20260507170059 | 63 | 360 | 1.7 | 7.0 | 0.00 | 1.08 | 0.20 | 75 | 1015.5 |
| 20260507165551 | 63 | 0 | 2.6 | 7.8 | 0.00 | 1.08 | 0.20 | 76 | 1015.5 |
| 20260507165051 | 62 | 360 | 1.7 | 7.8 | 0.00 | 1.08 | 0.20 | 75 | 1015.5 |
| 20260507164612 | 62 | 360 | 1.7 | 7.8 | 0.00 | 1.08 | 0.20 | 79 | 1015.4 |
| 20260507164051 | 61 | 360 | 0.9 | 7.8 | 0.00 | 1.08 | 0.20 | 79 | 1015.5 |
| 20260507163552 | 61 | 360 | 1.7 | 7.8 | 0.00 | 1.08 | 0.20 | 79 | 1015.4 |
| 20260507163052 | 60 | 360 | 2.6 | 7.0 | 0.00 | 1.08 | 0.20 | 80 | 1015.5 |
| 20260507162551 | 60 | 360 | 0.9 | 5.2 | 0.00 | 1.08 | 0.20 | 82 | 1015.4 |
| 20260507162049 | 59 | 360 | 1.7 | 5.2 | 0.00 | 1.08 | 0.20 | 80 | 1015.3 |
| 20260507161608 | 59 | 360 | 1.7 | 5.2 | 0.00 | 1.08 | 0.20 | 81 | 1015.5 |
| 20260507161051 | 59 | 360 | 2.6 | 5.2 | 0.00 | 1.08 | 0.20 | 82 | 1015.5 |
| 20260507160552 | 58 | 360 | 0.9 | 5.2 | 0.00 | 1.08 | 0.20 | 83 | 1015.6 |
| 20260507160053 | 58 | 360 | 0.0 | 3.5 | 0.00 | 1.08 | 0.20 | 84 | 1015.5 |
| 20260507155550 | 58 | 0 | 0.0 | 5.2 | 0.00 | 1.08 | 0.20 | 84 | 1015.5 |
| 20260507155052 | 57 | 360 | 0.9 | 5.2 | 0.00 | 1.08 | 0.20 | 84 | 1015.5 |
| 20260507154553 | 57 | 360 | 2.6 | 7.8 | 0.00 | 1.08 | 0.20 | 84 | 1015.6 |
| 20260507154050 | 57 | 360 | 1.7 | 7.8 | 0.00 | 1.08 | 0.20 | 85 | 1015.6 |
| 20260507153553 | 57 | 360 | 2.6 | 7.8 | 0.00 | 1.08 | 0.20 | 85 | 1015.5 |
| 20260507153052 | 57 | 360 | 3.5 | 7.8 | 0.00 | 1.08 | 0.20 | 85 | 1015.5 |
| 20260507152551 | 57 | 360 | 0.9 | 7.0 | 0.00 | 1.08 | 0.20 | 87 | 1015.5 |
| 20260507152051 | 57 | 360 | 1.7 | 8.7 | 0.00 | 1.08 | 0.20 | 86 | 1015.4 |
| 20260507151552 | 56 | 360 | 1.7 | 8.7 | 0.00 | 1.08 | 0.20 | 86 | 1015.2 |
| 20260507151051 | 56 | 360 | 2.6 | 7.8 | 0.00 | 1.08 | 0.20 | 87 | 1015.2 |
| 20260507150551 | 56 | 360 | 2.6 | 7.8 | 0.00 | 1.08 | 0.20 | 87 | 1015.1 |
| 20260507150057 | 56 | 360 | 1.7 | 7.8 | 0.00 | 1.08 | 0.20 | 87 | 1015.2 |
| 20260507145550 | 56 | 360 | 2.6 | 9.6 | 0.00 | 1.49 | 0.20 | 87 | 1015.3 |
| 20260507145054 | 56 | 360 | 1.7 | 9.6 | 0.00 | 1.49 | 0.20 | 87 | 1015.2 |
| 20260507144603 | 57 | 360 | 3.5 | 9.6 | 0.00 | 1.49 | 0.20 | 88 | 1015.2 |
| 20260507144051 | 57 | 360 | 3.5 | 7.0 | 0.00 | 1.49 | 0.20 | 89 | 1015.1 |
| 20260507143549 | 56 | 0 | 1.7 | 7.0 | 0.00 | 1.49 | 0.20 | 90 | 1015.2 |
| 20260507143108 | 56 | 360 | 1.7 | 7.8 | 0.00 | 1.49 | 0.20 | 91 | 1015.1 |
| 20260507142551 | 56 | 0 | 1.7 | 7.8 | 0.00 | 1.49 | 0.20 | 91 | 1015.0 |
| 20260507142050 | 56 | 360 | 1.7 | 7.8 | 0.00 | 1.49 | 0.20 | 91 | 1014.9 |
| 20260507141618 | 56 | 0 | 2.6 | 8.7 | 0.00 | 1.49 | 0.20 | 92 | 1015.0 |
| 20260507141053 | 56 | 0 | 2.6 | 8.7 | 0.00 | 1.49 | 0.20 | 92 | 1015.0 |
| 20260507140548 | 56 | 360 | 1.7 | 7.0 | 0.00 | 1.49 | 0.20 | 92 | 1014.9 |
| 20260507140057 | 56 | 0 | 0.9 | 7.0 | 0.00 | 1.49 | 0.20 | 92 | 1014.9 |
| 20260507135552 | 56 | 360 | 1.7 | 7.0 | 0.00 | 1.57 | 0.20 | 92 | 1015.0 |
| 20260507135052 | 56 | 360 | 1.7 | 4.3 | 0.00 | 1.57 | 0.20 | 93 | 1015.0 |
| 20260507134555 | 56 | 0 | 0.0 | 5.2 | 0.00 | 1.57 | 0.20 | 93 | 1014.8 |
| 20260507134051 | 56 | 360 | 0.0 | 5.2 | 0.00 | 1.57 | 0.20 | 93 | 1014.7 |
| 20260507133551 | 56 | 360 | 0.9 | 5.2 | 0.00 | 1.57 | 0.20 | 93 | 1014.7 |
| 20260507133109 | 56 | 360 | 0.9 | 2.6 | 0.00 | 1.57 | 0.20 | 93 | 1014.6 |
| 20260507132548 | 56 | 360 | 0.0 | 5.2 | 0.00 | 1.57 | 0.20 | 93 | 1014.8 |
| 20260507132049 | 56 | 360 | 0.9 | 7.8 | 0.00 | 1.57 | 0.20 | 93 | 1014.5 |
| 20260507131605 | 56 | 360 | 2.6 | 7.8 | 0.00 | 1.57 | 0.20 | 93 | 1014.4 |
| 20260507131049 | 56 | 360 | 0.9 | 7.0 | 0.00 | 1.57 | 0.20 | 94 | 1014.2 |
| 20260507130552 | 56 | 0 | 1.7 | 7.0 | 0.00 | 1.57 | 0.20 | 93 | 1014.4 |
| 20260507130056 | 56 | 0 | 0.0 | 5.2 | 0.00 | 1.57 | 0.20 | 93 | 1014.2 |
| 20260507125552 | 55 | 360 | 1.7 | 7.8 | 0.00 | 1.57 | 0.20 | 93 | 1014.0 |
| 20260507125049 | 55 | 360 | 3.5 | 7.8 | 0.00 | 1.57 | 0.20 | 93 | 1013.9 |
| 20260507124556 | 55 | 360 | 1.7 | 7.8 | 0.00 | 1.57 | 0.20 | 93 | 1013.9 |
| 20260507124048 | 55 | 360 | 0.9 | 7.8 | 0.00 | 1.57 | 0.20 | 93 | 1014.0 |
| 20260507123548 | 55 | 360 | 0.9 | 7.8 | 0.00 | 1.57 | 0.20 | 94 | 1014.0 |
| 20260507123110 | 55 | 360 | 1.7 | 7.8 | 0.00 | 1.57 | 0.20 | 94 | 1013.7 |
| 20260507122548 | 56 | 360 | 0.9 | 7.0 | 0.00 | 1.57 | 0.20 | 94 | 1013.7 |
| 20260507122049 | 56 | 360 | 1.7 | 7.0 | 0.00 | 1.57 | 0.20 | 94 | 1013.8 |
| 20260507121557 | 56 | 360 | 2.6 | 7.0 | 0.00 | 1.57 | 0.20 | 94 | 1013.8 |
| 20260507121052 | 56 | 360 | 1.7 | 7.0 | 0.00 | 1.57 | 0.20 | 94 | 1013.8 |
| 20260507120548 | 56 | 360 | 1.7 | 7.0 | 0.00 | 1.57 | 0.20 | 94 | 1013.8 |
| 20260507120055 | 56 | 360 | 0.0 | 7.0 | 0.00 | 1.57 | 0.20 | 94 | 1013.8 |
| 20260507115548 | 56 | 360 | 1.7 | 7.0 | 0.00 | 1.57 | 0.20 | 94 | 1013.4 |
| 20260507115053 | 56 | 360 | 0.9 | 5.2 | 0.00 | 1.57 | 0.20 | 94 | 1013.4 |
| 20260507114556 | 56 | 0 | 0.0 | 4.3 | 0.00 | 1.57 | 0.20 | 94 | 1013.8 |
| 20260507114054 | 56 | 0 | 0.9 | 4.3 | 0.00 | 1.57 | 0.20 | 94 | 1013.9 |
| 20260507113550 | 56 | 0 | 0.0 | 4.3 | 0.00 | 1.57 | 0.20 | 94 | 1013.8 |
| 20260507113051 | 56 | 0 | 0.0 | 3.5 | 0.00 | 1.57 | 0.20 | 94 | 1013.7 |
| 20260507112548 | 56 | 0 | 0.0 | 3.5 | 0.00 | 1.57 | 0.20 | 95 | 1013.3 |
| 20260507112050 | 57 | 360 | 0.0 | 3.5 | 0.00 | 1.57 | 0.20 | 95 | 1013.1 |
| 20260507111550 | 57 | 0 | 0.0 | 4.3 | 0.00 | 1.57 | 0.20 | 95 | 1013.0 |
| 20260507111051 | 57 | 360 | 1.7 | 5.2 | 0.00 | 1.57 | 0.20 | 95 | 1013.0 |
| 20260507110551 | 57 | 360 | 0.9 | 5.2 | 0.01 | 1.57 | 0.20 | 95 | 1012.9 |
| 20260507110057 | 57 | 360 | 1.7 | 4.3 | 0.01 | 1.57 | 0.20 | 95 | 1013.1 |
| 20260507105549 | 57 | 360 | 0.9 | 4.3 | 0.01 | 1.57 | 0.20 | 95 | 1012.9 |
| 20260507105051 | 57 | 360 | 0.9 | 3.5 | 0.01 | 1.57 | 0.20 | 95 | 1012.3 |
| 20260507104559 | 57 | 360 | 0.0 | 5.2 | 0.01 | 1.57 | 0.20 | 94 | 1013.2 |
| 20260507104052 | 57 | 360 | 2.6 | 7.0 | 0.01 | 1.57 | 0.20 | 95 | 1012.8 |
| 20260507103553 | 57 | 360 | 0.9 | 7.0 | 0.02 | 1.57 | 0.20 | 95 | 1012.7 |
| 20260507103054 | 58 | 360 | 1.7 | 7.0 | 0.03 | 1.57 | 0.20 | 95 | 1012.4 |
| 20260507102553 | 58 | 360 | 1.7 | 3.5 | 0.04 | 1.57 | 0.20 | 95 | 1012.5 |
| 20260507102056 | 58 | 360 | 0.9 | 3.5 | 0.06 | 1.57 | 0.20 | 95 | 1012.4 |
| 20260507101553 | 58 | 0 | 0.0 | 2.6 | 0.08 | 1.57 | 0.20 | 95 | 1012.5 |
| 20260507101056 | 58 | 0 | 0.0 | 2.6 | 0.10 | 1.57 | 0.20 | 95 | 1012.7 |
| 20260507100552 | 58 | 0 | 0.9 | 2.6 | 0.09 | 1.56 | 0.19 | 95 | 1012.6 |
| 20260507100059 | 58 | 360 | 0.9 | 4.3 | 0.10 | 1.56 | 0.19 | 95 | 1012.6 |
| 20260507095553 | 58 | 0 | 0.9 | 4.3 | 0.10 | 1.56 | 0.19 | 95 | 1012.6 |
| 20260507095053 | 58 | 360 | 0.0 | 2.6 | 0.11 | 1.56 | 0.19 | 95 | 1012.6 |
| 20260507094554 | 58 | 0 | 0.0 | 3.5 | 0.11 | 1.56 | 0.19 | 95 | 1012.9 |
| 20260507094052 | 58 | 0 | 0.9 | 3.5 | 0.14 | 1.56 | 0.19 | 95 | 1012.8 |
| 20260507093553 | 59 | 0 | 0.9 | 3.5 | 0.16 | 1.55 | 0.18 | 95 | 1012.6 |
| 20260507093054 | 59 | 0 | 0.9 | 2.6 | 0.15 | 1.54 | 0.17 | 95 | 1013.1 |
| 20260507092553 | 59 | 0 | 0.0 | 3.5 | 0.14 | 1.53 | 0.16 | 95 | 1012.9 |
| 20260507092053 | 59 | 0 | 0.0 | 3.5 | 0.12 | 1.51 | 0.14 | 95 | 1013.1 |
| 20260507091554 | 59 | 360 | 0.0 | 3.5 | 0.10 | 1.49 | 0.12 | 95 | 1013.3 |
| 20260507091056 | 59 | 0 | 0.0 | 7.0 | 0.08 | 1.47 | 0.10 | 95 | 1013.4 |
| 20260507090553 | 59 | 0 | 0.9 | 7.0 | 0.08 | 1.47 | 0.10 | 95 | 1012.8 |
| 20260507085553 | 59 | 360 | 0.0 | 7.8 | 0.07 | 1.46 | 0.09 | 95 | 1011.9 |
| 20260507085054 | 59 | 360 | 1.7 | 7.8 | 0.06 | 1.45 | 0.08 | 95 | 1012.2 |
| 20260507084555 | 59 | 360 | 0.0 | 5.2 | 0.06 | 1.45 | 0.08 | 95 | 1012.2 |
| 20260507084052 | 60 | 360 | 1.7 | 5.2 | 0.03 | 1.42 | 0.05 | 94 | 1012.3 |
| 20260507083556 | 60 | 360 | 0.0 | 5.2 | 0.00 | 1.39 | 0.02 | 94 | 1013.5 |
| 20260507083055 | 61 | 360 | 1.7 | 5.2 | 0.00 | 1.39 | 0.02 | 94 | 1013.1 |
| 20260507082553 | 61 | 0 | 1.7 | 7.0 | 0.00 | 1.39 | 0.02 | 94 | 1012.7 |
| 20260507082053 | 62 | 360 | 1.7 | 7.0 | 0.00 | 1.39 | 0.02 | 95 | 1012.6 |
| 20260507081556 | 62 | 360 | 0.0 | 1.7 | 0.00 | 1.39 | 0.02 | 96 | 1012.6 |
| 20260507081057 | 62 | 0 | 0.0 | 0.0 | 0.00 | 1.39 | 0.02 | 96 | 1012.4 |
| 20260507080553 | 62 | 0 | 0.0 | 0.0 | 0.00 | 1.39 | 0.02 | 96 | 1012.4 |
| 20260507080107 | 62 | 0 | 0.0 | 0.0 | 0.00 | 1.39 | 0.02 | 96 | 1012.6 |
| 20260507075553 | 62 | 0 | 0.0 | 0.0 | 0.00 | 1.39 | 0.02 | 96 | 1012.8 |
| 20260507075053 | 62 | 0 | 0.0 | 0.0 | 0.00 | 1.39 | 0.02 | 96 | 1012.7 |
| 20260507074551 | 62 | 0 | 0.0 | 0.0 | 0.00 | 1.39 | 0.02 | 96 | 1012.4 |
| 20260507074052 | 62 | 0 | 0.0 | 0.0 | 0.00 | 1.39 | 0.02 | 96 | 1012.4 |
| 20260507073556 | 62 | 0 | 0.0 | 0.0 | 0.00 | 1.39 | 0.02 | 96 | 1012.4 |
| 20260507073054 | 62 | 0 | 0.0 | 0.0 | 0.00 | 1.39 | 0.02 | 96 | 1012.4 |
| 20260507072555 | 62 | 0 | 0.0 | 0.0 | 0.00 | 1.39 | 0.02 | 96 | 1012.3 |
| 20260507072052 | 62 | 0 | 0.0 | 0.0 | 0.00 | 1.39 | 0.02 | 96 | 1012.2 |
| 20260507071553 | 62 | 0 | 0.0 | 0.0 | 0.00 | 1.39 | 0.02 | 96 | 1011.9 |
| 20260507071052 | 62 | 0 | 0.0 | 0.0 | 0.00 | 1.39 | 0.02 | 96 | 1011.8 |
| 20260507070555 | 62 | 0 | 0.0 | 0.0 | 0.00 | 1.39 | 0.02 | 96 | 1012.3 |
| 20260507070105 | 62 | 0 | 0.0 | 0.0 | 0.00 | 1.39 | 0.02 | 96 | 1012.5 |
| 20260507065556 | 62 | 0 | 0.0 | 0.0 | 0.00 | 1.39 | 0.02 | 96 | 1012.5 |
| 20260507065053 | 62 | 0 | 0.0 | 0.0 | 0.00 | 1.39 | 0.02 | 96 | 1012.8 |
| 20260507064625 | 62 | 0 | 0.0 | 0.0 | 0.00 | 1.39 | 0.02 | 96 | 1012.9 |
| 20260507064056 | 62 | 0 | 0.0 | 0.0 | 0.00 | 1.39 | 0.02 | 96 | 1012.8 |
| 20260507063553 | 62 | 0 | 0.0 | 0.0 | 0.00 | 1.39 | 0.02 | 95 | 1012.8 |
| 20260507063053 | 62 | 0 | 0.0 | 0.0 | 0.00 | 1.39 | 0.02 | 95 | 1013.0 |
| 20260507062552 | 62 | 0 | 0.0 | 0.0 | 0.00 | 1.39 | 0.02 | 95 | 1013.1 |
| 20260507062053 | 63 | 0 | 0.0 | 0.0 | 0.00 | 1.39 | 0.02 | 95 | 1013.1 |
| 20260507061557 | 63 | 0 | 0.0 | 0.0 | 0.00 | 1.39 | 0.02 | 96 | 1013.0 |
| 20260507061052 | 63 | 0 | 0.0 | 0.0 | 0.00 | 1.39 | 0.02 | 96 | 1013.2 |
| 20260507060552 | 63 | 0 | 0.0 | 0.9 | 0.00 | 1.39 | 0.02 | 96 | 1013.2 |
| 20260507060112 | 63 | 0 | 0.0 | 0.9 | 0.00 | 1.39 | 0.02 | 96 | 1013.5 |
| 20260507055553 | 63 | 0 | 0.0 | 0.9 | 0.00 | 1.39 | 0.02 | 96 | 1013.6 |
| 20260507055052 | 63 | 0 | 0.0 | 0.9 | 0.00 | 1.39 | 0.02 | 96 | 1013.5 |
| 20260507054605 | 63 | 0 | 0.0 | 0.0 | 0.00 | 1.39 | 0.02 | 96 | 1013.4 |
| 20260507054053 | 63 | 0 | 0.0 | 0.0 | 0.00 | 1.39 | 0.02 | 96 | 1013.1 |
| 20260507053553 | 63 | 0 | 0.0 | 0.0 | 0.01 | 1.39 | 0.02 | 96 | 1012.9 |
| 20260507053108 | 63 | 0 | 0.0 | 0.0 | 0.01 | 1.39 | 0.02 | 96 | 1012.8 |
| 20260507052553 | 63 | 0 | 0.0 | 0.0 | 0.01 | 1.39 | 0.02 | 96 | 1012.9 |
| 20260507052053 | 63 | 0 | 0.0 | 0.0 | 0.01 | 1.39 | 0.02 | 96 | 1012.6 |
| 20260507051605 | 63 | 0 | 0.0 | 0.0 | 0.02 | 1.39 | 0.02 | 96 | 1012.6 |
| 20260507051052 | 63 | 0 | 0.0 | 0.0 | 0.02 | 1.39 | 0.02 | 95 | 1012.5 |
| 20260507050552 | 63 | 0 | 0.0 | 0.0 | 0.02 | 1.39 | 0.02 | 95 | 1012.4 |
| 20260507050056 | 63 | 0 | 0.0 | 0.9 | 0.02 | 1.39 | 0.02 | 96 | 1012.5 |
| 20260507045553 | 63 | 0 | 0.0 | 0.9 | 0.02 | 1.39 | 0.02 | 96 | 1012.7 |
| 20260507045053 | 63 | 0 | 0.0 | 0.0 | 0.02 | 1.39 | 0.02 | 96 | 1012.8 |
| 20260507044557 | 63 | 0 | 0.0 | 0.0 | 0.03 | 1.39 | 0.02 | 96 | 1013.3 |
| 20260507044056 | 63 | 0 | 0.0 | 0.9 | 0.03 | 1.39 | 0.02 | 96 | 1013.3 |
| 20260507043552 | 63 | 0 | 0.0 | 0.9 | 0.03 | 1.38 | 0.01 | 96 | 1013.5 |
| 20260507043057 | 63 | 0 | 0.0 | 0.9 | 0.04 | 1.38 | 0.01 | 96 | 1013.7 |
| 20260507042553 | 63 | 0 | 0.0 | 0.0 | 0.04 | 1.38 | 0.01 | 96 | 1013.6 |
| 20260507042057 | 63 | 0 | 0.0 | 0.0 | 0.04 | 1.38 | 0.01 | 96 | 1013.7 |
| 20260507041559 | 63 | 0 | 0.0 | 0.0 | 0.03 | 1.37 | 0.00 | 96 | 1013.7 |
| 20260507041058 | 63 | 0 | 0.0 | 0.0 | 0.03 | 1.37 | 0.00 | 96 | 1013.8 |
| 20260507040558 | 63 | 0 | 0.0 | 0.0 | 0.03 | 1.37 | 0.00 | 96 | 1013.3 |
| 20260507040059 | 63 | 0 | 0.0 | 0.0 | 0.03 | 1.37 | 0.00 | 96 | 1013.2 |
| 20260507035557 | 63 | 0 | 0.0 | 0.0 | 0.04 | 1.37 | 1.37 | 96 | 1013.2 |
| 20260507035058 | 63 | 0 | 0.0 | 0.0 | 0.08 | 1.37 | 1.37 | 96 | 1013.6 |
| 20260507034558 | 63 | 0 | 0.0 | 0.9 | 0.08 | 1.36 | 1.36 | 96 | 1013.6 |
| 20260507034058 | 63 | 0 | 0.0 | 0.9 | 0.08 | 1.36 | 1.36 | 96 | 1013.8 |
| 20260507033557 | 64 | 0 | 0.0 | 1.7 | 0.07 | 1.35 | 1.35 | 96 | 1014.0 |
| 20260507033058 | 64 | 0 | 0.0 | 2.6 | 0.06 | 1.34 | 1.34 | 95 | 1014.0 |
| 20260507032558 | 64 | 0 | 0.0 | 2.6 | 0.06 | 1.34 | 1.34 | 95 | 1013.6 |
| 20260507032056 | 64 | 0 | 0.0 | 0.0 | 0.06 | 1.34 | 1.34 | 95 | 1013.4 |
| 20260507031556 | 64 | 0 | 0.0 | 0.0 | 0.06 | 1.34 | 1.34 | 95 | 1013.7 |
| 20260507031057 | 64 | 0 | 0.0 | 0.0 | 0.06 | 1.34 | 1.34 | 95 | 1013.9 |
| 20260507030557 | 64 | 0 | 0.0 | 0.0 | 0.06 | 1.34 | 1.34 | 95 | 1013.7 |
| 20260507030058 | 64 | 0 | 0.0 | 0.0 | 0.06 | 1.34 | 1.34 | 95 | 1014.0 |
| 20260507025557 | 64 | 0 | 0.0 | 0.0 | 0.05 | 1.33 | 1.33 | 95 | 1014.3 |
| 20260507025057 | 64 | 0 | 0.0 | 0.0 | 0.01 | 1.29 | 1.29 | 95 | 1014.4 |
| 20260507024558 | 64 | 0 | 0.0 | 0.0 | 0.00 | 1.28 | 1.28 | 95 | 1014.2 |
| 20260507024058 | 64 | 0 | 0.0 | 0.0 | 0.00 | 1.28 | 1.28 | 95 | 1014.1 |
| 20260507023558 | 64 | 0 | 0.0 | 0.0 | 0.00 | 1.28 | 1.28 | 95 | 1013.7 |
| 20260507023057 | 64 | 0 | 0.0 | 0.0 | 0.00 | 1.28 | 1.28 | 95 | 1013.5 |
| 20260507022559 | 64 | 0 | 0.0 | 0.0 | 0.00 | 1.28 | 1.28 | 95 | 1013.5 |
| 20260507022100 | 64 | 0 | 0.0 | 0.0 | 0.00 | 1.28 | 1.28 | 95 | 1013.4 |
| 20260507021558 | 64 | 0 | 0.0 | 0.0 | 0.00 | 1.28 | 1.28 | 95 | 1013.6 |
| 20260507021057 | 64 | 0 | 0.0 | 0.0 | 0.00 | 1.28 | 1.28 | 95 | 1013.8 |
| 20260507020559 | 64 | 0 | 0.0 | 0.0 | 0.00 | 1.28 | 1.28 | 95 | 1013.9 |
| 20260507020113 | 64 | 0 | 0.0 | 1.7 | 0.00 | 1.28 | 1.28 | 95 | 1013.9 |
| 20260507015557 | 64 | 0 | 0.0 | 1.7 | 0.00 | 1.28 | 1.28 | 95 | 1013.7 |
| 20260507015058 | 64 | 0 | 0.0 | 0.0 | 0.00 | 1.28 | 1.28 | 95 | 1013.9 |
| 20260507014601 | 64 | 0 | 0.0 | 0.0 | 0.00 | 1.28 | 1.28 | 95 | 1013.8 |
| 20260507014057 | 64 | 0 | 0.0 | 0.0 | 0.00 | 1.28 | 1.28 | 95 | 1014.1 |
| 20260507013557 | 64 | 0 | 0.0 | 0.0 | 0.00 | 1.28 | 1.28 | 95 | 1014.2 |
| 20260507013057 | 64 | 0 | 0.0 | 0.0 | 0.00 | 1.28 | 1.28 | 95 | 1014.1 |
| 20260507012559 | 64 | 0 | 0.0 | 0.0 | 0.00 | 1.28 | 1.28 | 95 | 1014.2 |
| 20260507012059 | 64 | 0 | 0.0 | 0.0 | 0.00 | 1.28 | 1.28 | 95 | 1014.2 |
| 20260507011600 | 64 | 0 | 0.0 | 0.0 | 0.00 | 1.28 | 1.28 | 95 | 1014.1 |
| 20260507011052 | 64 | 0 | 0.0 | 0.0 | 0.01 | 1.28 | 1.28 | 95 | 1013.8 |
| 20260507010553 | 64 | 0 | 0.0 | 0.0 | 0.01 | 1.28 | 1.28 | 95 | 1013.6 |
| 20260507010109 | 64 | 0 | 0.0 | 0.0 | 0.01 | 1.28 | 1.28 | 95 | 1013.5 |
| 20260507005553 | 64 | 0 | 0.0 | 0.9 | 0.01 | 1.28 | 1.28 | 95 | 1013.5 |
| 20260507005052 | 64 | 0 | 0.0 | 0.9 | 0.01 | 1.28 | 1.28 | 95 | 1013.5 |
| 20260507004553 | 64 | 0 | 0.0 | 1.7 | 0.01 | 1.28 | 1.28 | 95 | 1013.6 |
| 20260507004053 | 64 | 0 | 0.0 | 1.7 | 0.02 | 1.28 | 1.28 | 95 | 1013.7 |
| 20260507003553 | 64 | 0 | 0.0 | 1.7 | 0.03 | 1.28 | 1.28 | 95 | 1013.6 |
| 20260507003058 | 64 | 0 | 0.0 | 0.0 | 0.03 | 1.28 | 1.28 | 95 | 1013.7 |
| 20260507002552 | 64 | 0 | 0.0 | 0.0 | 0.04 | 1.28 | 1.28 | 95 | 1013.6 |
| 20260507002053 | 64 | 0 | 0.0 | 1.7 | 0.04 | 1.28 | 1.28 | 95 | 1013.4 |
| 20260507001603 | 64 | 0 | 0.0 | 1.7 | 0.13 | 1.28 | 1.28 | 95 | 1013.2 |
| 20260507001052 | 64 | 0 | 0.0 | 1.7 | 0.19 | 1.27 | 1.27 | 95 | 1013.0 |
| 20260507000555 | 64 | 0 | 0.0 | 0.0 | 0.22 | 1.27 | 1.27 | 95 | 1014.2 |
| 20260507000052 | 64 | 0 | 0.0 | 0.0 | 0.26 | 1.27 | 1.27 | 95 | 1014.5 |
| 20260506235553 | 64 | 0 | 0.0 | 0.0 | 0.31 | 1.27 | 1.27 | 95 | 1014.2 |
| 20260506235052 | 64 | 0 | 0.0 | 0.0 | 0.32 | 1.27 | 1.27 | 95 | 1014.0 |
| 20260506234558 | 64 | 0 | 0.0 | 0.9 | 0.32 | 1.27 | 1.27 | 95 | 1013.9 |
| 20260506234052 | 64 | 0 | 0.0 | 0.9 | 0.31 | 1.26 | 1.26 | 95 | 1013.7 |
| 20260506233555 | 64 | 0 | 0.0 | 1.7 | 0.30 | 1.25 | 1.25 | 95 | 1013.8 |
| 20260506233059 | 64 | 0 | 0.0 | 1.7 | 0.31 | 1.25 | 1.25 | 95 | 1014.2 |
| 20260506232552 | 64 | 360 | 0.0 | 0.9 | 0.32 | 1.24 | 1.24 | 94 | 1014.0 |
| 20260506232053 | 64 | 0 | 0.0 | 0.9 | 0.33 | 1.23 | 1.23 | 94 | 1013.8 |
| 20260506231612 | 64 | 0 | 0.0 | 0.9 | 0.24 | 1.14 | 1.14 | 95 | 1014.3 |
| 20260506231053 | 64 | 0 | 0.0 | 0.9 | 0.18 | 1.08 | 1.08 | 95 | 1014.2 |
| 20260506230552 | 65 | 0 | 0.0 | 1.7 | 0.15 | 1.04 | 1.04 | 95 | 1013.5 |
| 20260506230110 | 65 | 0 | 0.0 | 1.7 | 0.12 | 1.00 | 1.00 | 95 | 1013.3 |
| 20260506225553 | 65 | 360 | 0.0 | 1.7 | 0.08 | 0.96 | 0.96 | 94 | 1014.0 |
| 20260506225052 | 65 | 360 | 0.0 | 0.9 | 0.07 | 0.95 | 0.95 | 95 | 1013.1 |
| 20260506224555 | 65 | 0 | 0.0 | 0.0 | 0.07 | 0.95 | 0.95 | 95 | 1013.3 |
| 20260506224052 | 65 | 0 | 0.0 | 0.0 | 0.07 | 0.95 | 0.95 | 95 | 1013.2 |
| 20260506223552 | 65 | 0 | 0.0 | 1.7 | 0.07 | 0.95 | 0.95 | 95 | 1013.5 |
| 20260506223100 | 65 | 0 | 0.0 | 1.7 | 0.06 | 0.94 | 0.94 | 94 | 1013.4 |
| 20260506222552 | 65 | 0 | 0.0 | 0.0 | 0.04 | 0.92 | 0.92 | 94 | 1013.6 |
| 20260506222054 | 65 | 0 | 0.0 | 1.7 | 0.02 | 0.90 | 0.90 | 94 | 1013.3 |
| 20260506221624 | 65 | 0 | 0.0 | 3.5 | 0.02 | 0.90 | 0.90 | 94 | 1013.2 |
| 20260506221052 | 65 | 0 | 0.0 | 3.5 | 0.02 | 0.90 | 0.90 | 94 | 1013.1 |
| 20260506220553 | 65 | 360 | 0.9 | 3.5 | 0.03 | 0.90 | 0.90 | 94 | 1012.5 |
| 20260506220115 | 65 | 0 | 0.0 | 1.7 | 0.01 | 0.88 | 0.88 | 94 | 1013.3 |
| 20260506215552 | 65 | 0 | 0.0 | 1.7 | 0.01 | 0.88 | 0.88 | 94 | 1013.0 |
| 20260506215052 | 65 | 0 | 0.0 | 1.7 | 0.01 | 0.88 | 0.88 | 94 | 1012.8 |
| 20260506214553 | 65 | 0 | 0.0 | 1.7 | 0.01 | 0.88 | 0.88 | 94 | 1012.8 |
| 20260506214053 | 65 | 0 | 0.0 | 1.7 | 0.01 | 0.88 | 0.88 | 94 | 1013.1 |
| 20260506213552 | 65 | 0 | 0.0 | 2.6 | 0.01 | 0.88 | 0.88 | 94 | 1012.9 |
| 20260506213110 | 65 | 360 | 0.0 | 2.6 | 0.01 | 0.88 | 0.88 | 94 | 1012.3 |
| 20260506212552 | 65 | 360 | 0.0 | 2.6 | 0.02 | 0.88 | 0.88 | 94 | 1012.5 |
| 20260506212052 | 65 | 0 | 0.0 | 0.0 | 0.05 | 0.88 | 0.88 | 94 | 1012.7 |
| 20260506211601 | 65 | 0 | 0.0 | 0.0 | 0.06 | 0.88 | 0.88 | 94 | 1012.8 |
| 20260506211052 | 65 | 0 | 0.0 | 0.0 | 0.08 | 0.88 | 0.88 | 94 | 1013.2 |
| 20260506210552 | 65 | 0 | 0.0 | 0.0 | 0.07 | 0.87 | 0.87 | 94 | 1013.4 |
| 20260506210105 | 65 | 0 | 0.0 | 0.0 | 0.07 | 0.87 | 0.87 | 94 | 1013.2 |
| 20260506205552 | 65 | 0 | 0.0 | 0.0 | 0.07 | 0.87 | 0.87 | 94 | 1013.3 |
| 20260506205052 | 65 | 0 | 0.0 | 0.0 | 0.07 | 0.87 | 0.87 | 94 | 1013.3 |
| 20260506204606 | 65 | 0 | 0.0 | 0.0 | 0.07 | 0.87 | 0.87 | 94 | 1013.5 |
| 20260506204052 | 66 | 0 | 0.0 | 1.7 | 0.07 | 0.87 | 0.87 | 94 | 1013.4 |
| 20260506203552 | 66 | 0 | 0.0 | 2.6 | 0.07 | 0.87 | 0.87 | 94 | 1013.5 |
| 20260506203056 | 66 | 0 | 0.0 | 2.6 | 0.07 | 0.87 | 0.87 | 94 | 1013.6 |
| 20260506202554 | 66 | 0 | 0.0 | 2.6 | 0.07 | 0.86 | 0.86 | 94 | 1013.6 |
| 20260506202054 | 66 | 360 | 0.9 | 4.3 | 0.04 | 0.83 | 0.83 | 94 | 1013.9 |
| 20260506201553 | 66 | 0 | 0.9 | 4.3 | 0.03 | 0.82 | 0.82 | 93 | 1013.8 |
| 20260506201053 | 66 | 360 | 0.9 | 5.2 | 0.02 | 0.80 | 0.80 | 93 | 1013.9 |
| 20260506200552 | 67 | 360 | 1.7 | 5.2 | 0.02 | 0.80 | 0.80 | 93 | 1013.7 |
| 20260506200052 | 67 | 360 | 0.9 | 3.5 | 0.03 | 0.80 | 0.80 | 93 | 1013.5 |
| 20260506195557 | 68 | 360 | 1.7 | 3.5 | 0.04 | 0.80 | 0.80 | 94 | 1013.4 |
| 20260506195052 | 68 | 360 | 0.0 | 1.7 | 0.05 | 0.80 | 0.80 | 95 | 1013.9 |
| 20260506194556 | 68 | 0 | 0.0 | 2.6 | 0.07 | 0.80 | 0.80 | 95 | 1013.6 |
| 20260506194053 | 68 | 0 | 0.9 | 2.6 | 0.09 | 0.80 | 0.80 | 95 | 1013.7 |
| 20260506193552 | 67 | 0 | 0.0 | 2.6 | 0.17 | 0.80 | 0.80 | 94 | 1013.8 |
| 20260506193055 | 67 | 360 | 0.9 | 2.6 | 0.25 | 0.80 | 0.80 | 94 | 1014.0 |
| 20260506192552 | 67 | 360 | 0.0 | 1.7 | 0.25 | 0.79 | 0.79 | 94 | 1014.5 |
| 20260506192052 | 67 | 0 | 0.0 | 3.5 | 0.27 | 0.79 | 0.79 | 94 | 1014.0 |
| 20260506191556 | 67 | 0 | 0.0 | 3.5 | 0.28 | 0.79 | 0.79 | 94 | 1013.6 |
| 20260506191053 | 67 | 0 | 0.9 | 3.5 | 0.28 | 0.78 | 0.78 | 94 | 1013.7 |
| 20260506190552 | 67 | 0 | 0.0 | 1.7 | 0.29 | 0.78 | 0.78 | 93 | 1013.3 |
| 20260506190057 | 67 | 360 | 0.0 | 1.7 | 0.28 | 0.77 | 0.77 | 93 | 1013.6 |